Location: Colonia Mina de C?rbuni
(46.1667°N, 22.7167°E)
Time: 06:56:43
(UTC+00:00)

PAYLOAD B - Pass Details

Date: 04 February 2023
Orbit: 849 x 870 km, 99.1° (Epoch: 21 March)

Event Time Altitude Azimuth Distance (km) Brightness Sun altitude
Rises 16:55:22 0° 159° (SSE) 3,416 7.2 -13.7°
Reaches altitude 10° 16:57:44 10° 159° (SSE) 2,481 6.5 -14.1°
Maximum altitude 17:03:14 80° 73° (ENE) 872 4.1 -15.0°
Drops below altitude 10° 17:08:45 10° 347° (NNW) 2,488 6.7 -16.0°
Sets 17:11:08 0° 347° (NNW) 3,427 7.5 -16.4°
